THOR ABLESTAR DEB, 2701

Orbit data source: Space-Track

THOR ABLESTAR DEB, 2701 is space debris in LEO originally from a launch on Thu, 24 Jun 1965 UTC launched from the Air Force Western Test Range (AFWTR). Debris objects in space refer to the collection of defunct objects orbiting the Earth. Examples of debris include non-operational satellites, rocket bodies, and fragments generated from explosions, collisions, or faulty payload assembly.

Loading next visibility...
THOR ABLESTAR DEB details
Identifier
2701, 1965-048E
Orbit
LEO
Last TLE update8 hours ago
Origin
Flag of USUSN BuWeps (US)
ManufacturerUnknown
MissionSpacecraft
Bus & MotorUnknown
MassUnknown
Launch date (UTC)
1965-06-24 (59 years ago)
Launch vehicleUnknown
Launch site
Air Force Western Test Range (AFWTR)
Object type
Payload
Rocket body
Debris
Shape & HBRUnknown
Radar Cross SectionSmall (<0.1 m²)

Expand to show TLE details & history

TLE from 8 hours ago
0 THOR ABLESTAR DEB
1  2701U 65048E   24356.32565845  .00000594  00000-0  72852-3 0  9996
2  2701  89.8895 294.1413 0065307  52.9652  99.5224 13.63547935947820
Epoch: 2024-12-21T07:48Z
Definitive object data (Epoch: 2024-12-21T07:48:56.89Z)
Latitude26.80953°
Longitude-93.52973°
Altitude1,034.471 km
Speed7.333 km/s
True Right ascension07h 36m 20s
True Declination26° 40' 35"
Sunlit
Object was in full shadow at TLE epoch
Visualization TLE readout
Latitude67.47638°
Longitude86.78692°
Altitude987.975 km
Speed7.387 km/s
Apparent Right ascension00h 56m 13s
Apparent Declination30° 50' 34"
Sunlit
Object is in daylight
Visualization observer readout
Local Sidereal Time15:14:41
Azimuth29.945° NE
Elevation-12.297°
Doppler factor1
Orbital elements
Apogee altitude1,068.17 km
Perigee altitude971.542 km
Semi-major axis7,397.993 km
Eccentricity0.0065307
Inclination89.8895°
RAAN294.1413°
Arg. of periapsis52.9652°
True anomaly100.25944°
Mean anomaly99.5224°
Eccentric anomaly99.89102°
Mean motion3.41093 °/min
BSTAR0.00072852
Orbital period105.54 mins
Loading maneuver chart data...

THOR ABLESTAR DEB Visibility forecast

Observer location: undefined°, undefined

Span
Click to sort rows by Start time (UTC) header in descending order
Start Az.
Max El. time (UTC)
Max El. Az.
Max El.
End time (UTC)
End Az.
10 mins2024-12-21 19:31:15.992Z134.338° SE2024-12-21 19:36:15.992Z74.134° E27.032°2024-12-21 19:41:15.992Z18.933° NNE
9 mins2024-12-21 21:17:15.992Z216.487° SW2024-12-21 21:21:15.992Z272.823° WNW31.091°2024-12-21 21:26:15.992Z337.876° N
11 mins2024-12-22 08:19:15.992Z5.004° NNE2024-12-22 08:24:15.992Z60.827° ENE44.508°2024-12-22 08:30:15.992Z179.309° S
5 mins2024-12-22 10:07:15.992Z308.02° NW2024-12-22 10:09:15.992Z287.281° WNW14.487°2024-12-22 10:12:15.992Z258.434° W
|